Chehalis River@Grand Mound

Start Stop
DateFlow
CFS
Gauge
Feet
DateFlow
CFS
Gauge
Feet
01/18/2021 17:005170134.57
01/18/2021 16:005230134.6
01/18/2021 15:005300134.64
01/18/2021 14:005330134.66
01/18/2021 13:005400134.7
01/18/2021 12:005470134.74
01/18/2021 11:005530134.77
01/18/2021 10:005620134.82
01/18/2021 09:005690134.86
01/18/2021 08:005760134.9
01/18/2021 07:005830134.94
01/18/2021 06:005910134.98
01/18/2021 05:005960135.01
01/18/2021 04:006050135.05
01/18/2021 03:006150135.1
01/18/2021 02:006210 
01/18/2021 01:006290135.17
01/18/2021 00:006400135.22
01/17/2021 23:006500135.27
01/17/2021 22:006590135.31
01/17/2021 21:006680135.35
01/17/2021 20:006780135.4
01/17/2021 19:006850135.43
01/17/2021 18:006960135.48
01/17/2021 17:007050135.52
01/17/2021 16:007140135.56
01/17/2021 15:007220135.6
01/17/2021 14:007310135.64
01/17/2021 13:007410135.68
01/17/2021 12:007520135.73
01/17/2021 11:007610135.77
01/17/2021 10:007730135.82
01/17/2021 09:007840135.87
01/17/2021 08:007980135.93
01/17/2021 07:008100135.98
01/17/2021 06:008230136.04
01/17/2021 05:008330136.09
01/17/2021 04:008440136.14
01/17/2021 03:008560136.2
01/17/2021 02:008700136.27
01/17/2021 01:008830136.33
01/17/2021 00:008980136.4
01/16/2021 21:009400136.6
01/16/2021 20:009550136.67
01/16/2021 19:009730136.75
01/16/2021 18:009900136.83
01/16/2021 17:0010100136.91
01/16/2021 16:0010300136.99
01/16/2021 15:0010500137.08
01/16/2021 14:0010600137.15
01/16/2021 13:0010800137.24
01/16/2021 12:0011000137.33
01/16/2021 11:0011200137.42
01/16/2021 10:0011400137.51
01/16/2021 09:0011700137.6
01/16/2021 08:0011900137.71
01/16/2021 07:0012200137.82
01/16/2021 06:0012400137.92
01/16/2021 05:0012700138.04
01/16/2021 04:0013000138.14
01/16/2021 03:0013300138.27
01/16/2021 02:0013600138.38
01/16/2021 01:0013900138.51
01/16/2021 00:0014200138.63
01/15/2021 23:0014500138.76
01/15/2021 22:0014900138.9
01/15/2021 21:0015200139.03
01/15/2021 20:0015600139.18
01/15/2021 19:0016000139.32
01/15/2021 18:0016400139.47
01/15/2021 17:0016800139.61
01/15/2021 16:0017200139.76
01/15/2021 15:0017600139.91
01/15/2021 14:0018000140.05
01/15/2021 13:0018500140.22
01/15/2021 12:0018900140.35
01/15/2021 11:0019300140.51
01/15/2021 10:0019800140.65
01/15/2021 09:0020200140.8
01/15/2021 08:0020800140.94
01/15/2021 07:0021500141.08
01/15/2021 06:0022100141.21
01/15/2021 05:0022800141.35
01/15/2021 04:0023300141.46
01/15/2021 03:0023800141.57
01/15/2021 02:0024500141.7
01/15/2021 01:0025000141.8
01/15/2021 00:0025500141.91
01/14/2021 23:0026100142.01
01/14/2021 22:0026500142.1
01/14/2021 21:0026900142.17
01/14/2021 20:0027400142.26
01/14/2021 19:0027900142.35
01/14/2021 18:0028200142.42
01/14/2021 17:0028600142.49
01/14/2021 16:0029000142.56
01/14/2021 15:0029300142.62
01/14/2021 14:0029700142.68
01/14/2021 13:0029900142.72
01/14/2021 12:0030100142.76
01/14/2021 11:0030400142.81
01/14/2021 10:0030500142.83
01/14/2021 09:0030600142.85
01/14/2021 08:0030700142.86
01/14/2021 07:0030800142.87
01/14/2021 06:0030700142.86
01/14/2021 05:0030700142.86
01/14/2021 04:0030400142.82
01/14/2021 03:0030400142.81
01/14/2021 02:0030200142.77
01/14/2021 01:0029900142.73
01/14/2021 00:0029600142.67
01/13/2021 23:0029300142.62
01/13/2021 22:0029200142.59
01/13/2021 21:0028800142.53
01/13/2021 20:0028500142.47
01/13/2021 19:0028200142.41
01/13/2021 18:0027900142.35
01/13/2021 17:0027600142.3
01/13/2021 16:0027100142.2
01/13/2021 15:0026900142.16
01/13/2021 14:0026500142.1
01/13/2021 13:0026200142.04
01/13/2021 12:0025800141.96
01/13/2021 11:0025400141.89
01/13/2021 10:0024900141.79
01/13/2021 09:0024500141.71
01/13/2021 08:0024100141.63
01/13/2021 07:0023700141.54
01/13/2021 06:0023200141.45
01/13/2021 05:0022700141.34
01/13/2021 04:0022200141.23
01/13/2021 03:0021600141.1
01/13/2021 02:0020900 
01/13/2021 01:0020200140.79
01/13/2021 00:0019700140.62
01/12/2021 23:0019300140.48
01/12/2021 22:0018700140.29
01/12/2021 21:0018100140.08
01/12/2021 20:0017500139.86
01/12/2021 19:0016900139.64
01/12/2021 18:0016200139.41
01/12/2021 17:0015500139.14
01/12/2021 16:0014800138.86
01/12/2021 15:0014000138.56
01/12/2021 14:0013200138.24
01/12/2021 13:0012300137.87
01/12/2021 12:0011400137.5
01/12/2021 11:0010500137.1
01/12/2021 10:009640136.71
01/12/2021 09:008850136.34
01/12/2021 08:008190136.02
01/12/2021 07:007540135.74
01/12/2021 06:007020135.51
01/12/2021 05:006590135.31
01/12/2021 04:006230135.14
01/12/2021 03:005940135
01/12/2021 02:005740134.89
01/12/2021 01:005560134.79
01/12/2021 00:005420134.71
01/11/2021 23:005310134.65
01/11/2021 22:005240134.61
01/11/2021 21:005190134.58
01/11/2021 20:005160134.56
01/11/2021 19:005140134.55
01/11/2021 18:005140134.55
01/11/2021 17:005160134.56
01/11/2021 16:005170134.57
01/11/2021 15:005210134.59
01/11/2021 14:005230134.6
01/11/2021 13:005260134.62
01/11/2021 12:005300134.64
01/11/2021 11:005330134.66
01/11/2021 10:005380134.69
01/11/2021 09:005420134.71
01/11/2021 08:005470134.74
01/11/2021 07:005540134.78
01/11/2021 06:005580134.8
01/11/2021 05:005630134.83
01/11/2021 04:005710134.87
01/11/2021 03:005780134.91
01/11/2021 02:005830134.94
01/11/2021 01:005890134.97
01/11/2021 00:005960135.01
01/10/2021 23:006030135.04
01/10/2021 22:006090135.07
01/10/2021 21:006170135.11
01/10/2021 20:006230135.14
01/10/2021 19:006290135.17
01/10/2021 18:006380135.21
01/10/2021 17:006420135.23
01/10/2021 16:006480135.26
01/10/2021 15:006530135.28
01/10/2021 14:006590135.31
01/10/2021 13:006650135.34
01/10/2021 12:006720135.37
01/10/2021 11:006780135.4
01/10/2021 10:006850135.43
01/10/2021 09:006910135.46
01/10/2021 08:006980135.49
01/10/2021 07:007050135.52
01/10/2021 06:007160135.57
01/10/2021 05:007220135.6
01/10/2021 04:007310135.64
01/10/2021 03:007380135.67
01/10/2021 02:007470135.71
01/10/2021 01:007590135.76
01/10/2021 00:007660135.79
01/09/2021 23:007770135.84
01/09/2021 22:007840135.87
01/09/2021 21:007960135.92
01/09/2021 19:008190136.02
01/09/2021 18:008290136.07
01/09/2021 17:008390136.12
01/09/2021 16:008500136.17
01/09/2021 15:008600136.22
01/09/2021 14:008720136.28
01/09/2021 13:008850136.34
01/09/2021 12:008960136.39
01/09/2021 11:009100136.46
01/09/2021 10:009230136.52
01/09/2021 09:009360136.58
01/09/2021 08:009490136.64
01/09/2021 07:009640136.71
01/09/2021 06:009770136.77
01/09/2021 05:009950136.85
01/09/2021 04:0010100136.91
01/09/2021 03:0010200136.98
01/09/2021 02:0010400137.04
01/09/2021 01:0010500137.1
01/09/2021 00:0010700137.18
01/08/2021 23:0010800137.24
01/08/2021 22:0011000137.3
01/08/2021 21:0011100137.35
01/08/2021 20:0011200137.4
01/08/2021 19:0011300137.46
01/08/2021 18:0011400137.51
01/08/2021 17:0011600137.57
01/08/2021 16:0011700137.63
01/08/2021 15:0011800137.68
01/08/2021 14:0012000137.75
01/08/2021 13:0012200137.82
01/08/2021 12:0012400137.9
01/08/2021 11:0012600137.98
01/08/2021 10:0012800138.07
01/08/2021 09:0013000138.16
01/08/2021 08:0013300138.26
01/08/2021 07:0013400138.33
01/08/2021 06:0013700138.42
01/08/2021 05:0013900138.52
01/08/2021 04:0014100138.61
01/08/2021 03:0014400138.72
01/08/2021 02:0014700138.81
01/08/2021 01:0014900138.91
01/08/2021 00:0015200139.01
01/07/2021 23:0015500139.12
01/07/2021 22:0015700139.21
01/07/2021 21:0016000139.31
01/07/2021 20:0016300139.42
01/07/2021 19:0016500139.52
01/07/2021 18:0016800139.62
01/07/2021 17:0017100139.72
01/07/2021 16:0017400139.82
01/07/2021 15:0017600139.91
01/07/2021 14:0017900140.01
01/07/2021 13:0018200140.1
01/07/2021 12:0018500140.22
01/07/2021 11:0018700140.3
01/07/2021 10:0019000140.38
01/07/2021 09:0019200140.47
01/07/2021 08:0019400140.54
01/07/2021 07:0019600140.61
01/07/2021 06:0019800140.65
01/07/2021 05:0020000140.72
01/07/2021 04:0020100140.76
01/07/2021 03:0020200140.81
01/07/2021 02:0020500 
01/07/2021 01:0020600140.88
01/07/2021 00:0020700140.91
01/06/2021 23:0020800140.94
01/06/2021 22:0020900140.96
01/06/2021 21:0021000140.98
01/06/2021 20:0021100140.99
01/06/2021 19:0021100141
01/06/2021 18:0021200141.02
01/06/2021 17:0021200141.02
01/06/2021 16:0021300141.04
01/06/2021 15:0021300141.05
01/06/2021 14:0021400141.06
01/06/2021 13:0021500141.09
01/06/2021 12:0021700141.13
01/06/2021 11:0021800141.15
01/06/2021 10:0021900141.18
01/06/2021 09:0022200141.24
01/06/2021 08:0022500141.3
01/06/2021 07:0022800141.35
01/06/2021 06:0023200141.44
01/06/2021 05:0023500141.5
01/06/2021 04:0023900141.58
01/06/2021 03:0024100141.62
01/06/2021 02:0024500141.71
01/06/2021 01:0024800141.76
01/06/2021 00:0025100141.82
01/05/2021 23:0025400141.89
01/05/2021 22:0025700141.93
01/05/2021 21:0026000141.99
01/05/2021 20:0026300142.06
01/05/2021 19:0026600142.12
01/05/2021 18:0026900142.16
01/05/2021 17:0027000142.18
01/05/2021 16:0027300142.24
01/05/2021 15:0027300142.25
01/05/2021 14:0027500142.29
01/05/2021 13:0027600142.3
01/05/2021 12:0027700142.32
01/05/2021 11:0027700142.32
01/05/2021 10:0027800142.33
01/05/2021 09:0027900142.36
01/05/2021 08:0027800142.34
01/05/2021 07:0028000142.37
01/05/2021 06:0027900142.36
01/05/2021 05:0028000142.37
01/05/2021 03:0028000142.37
01/05/2021 02:0027900142.36
01/05/2021 01:0028000142.37
01/05/2021 00:0028200142.41
01/04/2021 23:0028200142.41
01/04/2021 22:0028100142.4
01/04/2021 21:0028200142.42
01/04/2021 20:0028400142.45
01/04/2021 19:0028400142.45
01/04/2021 18:0028500142.46
01/04/2021 17:0028600142.48
01/04/2021 16:0028600142.49
01/04/2021 15:0028800142.52
01/04/2021 14:0028800142.53
01/04/2021 13:0028900142.54
01/04/2021 12:0028900142.55
01/04/2021 11:0029000142.56
01/04/2021 10:0029000142.56
01/04/2021 09:0029100142.58
01/04/2021 08:0029100142.57
01/04/2021 07:0028900142.55
01/04/2021 06:0028900142.54
01/04/2021 05:0028800142.52
01/04/2021 04:0028700142.5
01/04/2021 03:0028500142.46
01/04/2021 02:0028200142.42
01/04/2021 01:0028000142.37
01/04/2021 00:0027600142.3
01/03/2021 23:0027200142.23
01/03/2021 22:0026900142.16
01/03/2021 21:0026300142.06
01/03/2021 20:0026000141.99
01/03/2021 19:00 141.9
01/03/2021 18:0025000141.81
01/03/2021 17:0024500141.71
01/03/2021 16:0023900141.58
01/03/2021 15:0023200141.45
01/03/2021 14:0022500141.3
01/03/2021 13:0021700141.12
01/03/2021 12:0020700140.91
01/03/2021 11:0020000140.72
01/03/2021 10:0019400140.53
01/03/2021 09:0018800140.31
01/03/2021 08:0018000140.06
01/03/2021 07:0017400139.83
01/03/2021 06:0016700139.57
01/03/2021 05:0015900139.3
01/03/2021 04:0015200139.02
01/03/2021 03:0014400138.72
01/03/2021 02:0013600138.4
01/03/2021 01:0012800138.09
01/03/2021 00:0012100137.79
01/02/2021 23:0011400137.5
01/02/2021 22:0010800137.25
01/02/2021 21:0010300137.03
01/02/2021 20:009970136.86
01/02/2021 19:009660136.72
01/02/2021 18:009420136.61
01/02/2021 17:009250136.53
01/02/2021 16:009150136.48
01/02/2021 15:009040136.43
01/02/2021 14:008960136.39
01/02/2021 13:008910136.37
01/02/2021 12:008850136.34
01/02/2021 11:008810136.32
01/02/2021 10:008770136.3
01/02/2021 09:008720136.28
01/02/2021 08:008680136.26
01/02/2021 07:008660136.25
01/02/2021 06:008620136.23
01/02/2021 05:008580136.21
01/02/2021 04:008560136.2
01/02/2021 03:008540136.19
01/02/2021 02:008520 
01/02/2021 01:008520136.18
01/02/2021 00:008540136.19
01/01/2021 23:008560136.2
01/01/2021 22:008580136.21
01/01/2021 21:008640136.24
01/01/2021 20:008700136.27
01/01/2021 19:008750136.29
01/01/2021 18:008810136.32
01/01/2021 17:008850136.34
01/01/2021 16:008890136.36
01/01/2021 15:008930136.38
01/01/2021 14:009000136.41
01/01/2021 13:009040136.43
01/01/2021 12:009100136.46
01/01/2021 11:009120136.47
01/01/2021 10:009170136.49
01/01/2021 09:009210136.51
01/01/2021 08:009210136.51
01/01/2021 07:009250136.53
01/01/2021 05:009250136.53
01/01/2021 04:009230136.52
01/01/2021 03:009230136.52
01/01/2021 02:009190136.5
01/01/2021 01:009150136.48
01/01/2021 00:009060136.44
12/31/2020 23:008980136.4
12/31/2020 22:008850136.34
12/31/2020 21:008720136.28
12/31/2020 20:008560136.2
12/31/2020 19:008370136.11
12/31/2020 18:008170136.01
12/31/2020 17:007960135.92
12/31/2020 16:007680135.8
12/31/2020 15:007450135.7
12/31/2020 14:007220135.6
12/31/2020 13:007000135.5
12/31/2020 12:006760135.39
12/31/2020 11:006550135.29
12/31/2020 10:006340135.19
12/31/2020 09:006130135.09
12/31/2020 08:005940135
12/31/2020 07:005780134.91
12/31/2020 06:005580134.8
12/31/2020 05:005420134.71
12/31/2020 04:005240134.61
12/31/2020 03:005090134.52
12/31/2020 02:004920134.42
12/31/2020 01:004750134.32
12/31/2020 00:004590134.22
12/30/2020 23:004430134.12
12/30/2020 22:004270134.02
12/30/2020 21:004130133.93
12/30/2020 20:004010133.85
12/30/2020 19:003900133.78
12/30/2020 18:003840133.74
12/30/2020 17:003770133.69
12/30/2020 16:003700133.64
12/30/2020 15:003650133.61
12/30/2020 14:003600133.57
12/30/2020 13:003550133.54
12/30/2020 12:003510133.51
12/30/2020 11:003470133.48
12/30/2020 10:003450133.47
12/30/2020 09:003440133.46
12/30/2020 08:003430133.45
12/30/2020 07:003410133.44
12/30/2020 03:003410133.44
12/30/2020 02:003430133.45
12/30/2020 01:003440133.46
12/30/2020 00:003450133.47
12/29/2020 23:003470133.48
12/29/2020 22:003480133.49
12/29/2020 21:003510133.51
12/29/2020 20:003540133.53
12/29/2020 19:003550133.54
12/29/2020 18:003580133.56
12/29/2020 17:003600133.57
12/29/2020 16:003610133.58
12/29/2020 15:003640133.6
12/29/2020 14:003650133.61
12/29/2020 13:003680133.63
12/29/2020 12:003700133.64
12/29/2020 11:003730133.66
12/29/2020 10:003740133.67
12/29/2020 09:003780133.7
12/29/2020 08:003800133.71
12/29/2020 07:003810133.72
12/29/2020 06:003840133.74
12/29/2020 05:003860133.75
12/29/2020 04:003890133.77
12/29/2020 03:003900133.78
12/29/2020 02:003930133.8
12/29/2020 01:003960133.82
12/29/2020 00:003990133.84
12/28/2020 23:004010133.85
12/28/2020 22:004040133.87
12/28/2020 21:004070133.89
12/28/2020 20:004080133.9
12/28/2020 19:004110133.92
12/28/2020 18:004150133.94
12/28/2020 17:004180133.96
12/28/2020 16:004210133.98
12/28/2020 15:004220133.99
12/28/2020 14:004250134.01
12/28/2020 13:004270134.02
12/28/2020 12:004300134.04
12/28/2020 11:004330134.06
12/28/2020 10:004360134.08
12/28/2020 09:004400134.1
12/28/2020 08:004410134.11
12/28/2020 07:004440134.13
12/28/2020 06:004460134.14
12/28/2020 05:004490134.16
12/28/2020 04:004510134.17
12/28/2020 03:004540134.19
12/28/2020 02:004560134.2
12/28/2020 01:004570134.21
12/28/2020 00:004590134.22
12/27/2020 22:004590134.22
12/27/2020 21:004570134.21
12/27/2020 20:004570134.21
12/27/2020 19:004560134.2
12/27/2020 18:004540134.19
12/27/2020 16:004540134.19
12/27/2020 15:004560134.2
12/27/2020 14:004570134.21
12/27/2020 13:004590134.22
12/27/2020 12:004620134.24
12/27/2020 11:004640134.25
12/27/2020 10:004670134.27
12/27/2020 09:004690134.28
12/27/2020 08:004720134.3
12/27/2020 07:004750134.32
12/27/2020 06:004770134.33
12/27/2020 05:004790134.34
12/27/2020 04:004800134.35
12/27/2020 03:004820134.36
12/27/2020 02:004850134.38
12/27/2020 01:004850134.38
12/27/2020 00:004870134.39
12/26/2020 23:004900134.41
12/26/2020 22:004920134.42
12/26/2020 21:004940134.43
12/26/2020 20:004950134.44
12/26/2020 19:004970134.45
12/26/2020 18:005000134.47
12/26/2020 17:005020134.48
12/26/2020 16:005040134.49
12/26/2020 15:005050134.5
12/26/2020 14:005070134.51
12/26/2020 13:005090134.52
12/26/2020 12:005110134.53
12/26/2020 11:005120134.54
12/26/2020 09:005120134.54
12/26/2020 08:005140134.55
12/26/2020 07:005140134.55
12/26/2020 06:005160134.56
12/26/2020 03:005160134.56
12/26/2020 02:005170134.57
12/26/2020 01:005170134.57
12/26/2020 00:005210134.59
12/25/2020 23:005230134.6
12/25/2020 22:005260134.62
12/25/2020 21:005300134.64
12/25/2020 20:005350134.67
12/25/2020 19:005420134.71
12/25/2020 18:005470134.74
12/25/2020 17:005530134.77
12/25/2020 16:005560134.79
12/25/2020 15:005620134.82
12/25/2020 14:005690134.86
12/25/2020 13:005760134.9
12/25/2020 12:005810134.93
12/25/2020 11:005890134.97
12/25/2020 10:005940135
12/25/2020 09:006030135.04
12/25/2020 08:006130135.09
12/25/2020 07:006210135.13
12/25/2020 06:006290135.17
12/25/2020 05:006380135.21
12/25/2020 04:006460135.25
12/25/2020 03:006570135.3
12/25/2020 02:006680135.35
12/25/2020 01:006760135.39
12/25/2020 00:006870135.44
12/24/2020 23:006960135.48
12/24/2020 22:007070135.53
12/24/2020 21:007180135.58
12/24/2020 20:007290135.63
12/24/2020 19:007410135.68
12/24/2020 18:007520135.73
12/24/2020 17:007630135.78
12/24/2020 16:007770135.84
12/24/2020 15:007870135.88
12/24/2020 14:008010135.94
12/24/2020 13:008150136
12/24/2020 12:008270136.06
12/24/2020 11:008390136.12
12/24/2020 10:008480136.16
12/24/2020 09:008620136.23
12/24/2020 08:008770136.3
12/24/2020 07:008870136.35
12/24/2020 06:009020136.42
12/24/2020 05:009170136.49
12/24/2020 04:009300136.55
12/24/2020 03:009470136.63
12/24/2020 02:009620136.7
12/24/2020 01:009750136.76
12/24/2020 00:009920136.84
12/23/2020 23:0010100136.92
12/23/2020 22:0010300137
12/23/2020 21:0010400137.07
12/23/2020 20:0010600137.15
12/23/2020 19:0010800137.23
12/23/2020 18:0011000137.31
12/23/2020 17:0011200137.39
12/23/2020 16:0011400137.48
12/23/2020 15:0011500137.55
12/23/2020 14:0011800137.65
12/23/2020 13:0012000137.74
12/23/2020 12:0012200137.84
12/23/2020 11:0012400137.93
12/23/2020 10:0012700138.02
12/23/2020 09:0012900138.12
12/23/2020 08:0013200138.22
12/23/2020 07:0013400138.32
12/23/2020 06:0013600138.41
12/23/2020 05:0013900138.5
12/23/2020 04:0014100138.61
12/23/2020 03:0014300138.68
12/23/2020 02:0014500138.77
12/23/2020 01:0014800138.86
12/23/2020 00:0015000138.93
12/22/2020 23:0015100138.99
12/22/2020 22:0015300139.05
12/22/2020 21:0015400139.11
12/22/2020 20:0015500139.15
12/22/2020 19:0015700139.19
12/22/2020 18:0015700139.22
12/22/2020 17:0015800139.25
12/22/2020 16:0015900139.27
12/22/2020 15:0015800139.26
12/22/2020 14:00 139.25
12/22/2020 13:0015800139.23
12/22/2020 12:0015700139.21
12/22/2020 11:0015600139.17
12/22/2020 10:0015200139.03
12/22/2020 09:0015100138.98
12/22/2020 08:0014900138.9
12/22/2020 07:0014700138.81
12/22/2020 06:0014400138.71
12/22/2020 05:0014100138.59
12/22/2020 04:0013800138.47
12/22/2020 03:0013500138.34
12/22/2020 02:0013100 
12/22/2020 01:0012800138.08
12/22/2020 00:0012500137.97
12/21/2020 23:0012300137.87
12/21/2020 22:0012100137.8
12/21/2020 21:0012000137.74
12/21/2020 20:0011900137.71
12/21/2020 19:0011900137.69
12/21/2020 18:0011800137.67
12/21/2020 17:0011800137.68
12/21/2020 16:0011900137.69
12/21/2020 15:0011900137.71
12/21/2020 14:0012000137.73
12/21/2020 13:0012000137.76
12/21/2020 12:0012200137.81
12/21/2020 11:0012300137.85
12/21/2020 10:0012400137.91
12/21/2020 09:0012500137.95
12/21/2020 08:0012700138.02
12/21/2020 07:0012800138.07
12/21/2020 06:0012900138.13
12/21/2020 05:0013100138.19
12/21/2020 04:0013200138.23
12/21/2020 02:0013400138.3
12/21/2020 01:0013400138.32
12/21/2020 00:0013500138.35
12/20/2020 23:00 138.36
12/20/2020 22:00 138.36
12/20/2020 20:0013500138.34
12/20/2020 19:0013400138.33
12/20/2020 18:0013300138.29
12/20/2020 17:0013200138.24
12/20/2020 16:0013000138.17
12/20/2020 15:0012800138.08
12/20/2020 14:0012500137.96
12/20/2020 13:0012200137.83
12/20/2020 12:0011800137.66
12/20/2020 11:0011300137.46
12/20/2020 10:0010800137.24
12/20/2020 09:0010300137
12/20/2020 08:009750136.76
12/20/2020 07:009250136.53
12/20/2020 06:008810136.32
12/20/2020 05:008440136.14
12/20/2020 04:008170136.01
12/20/2020 03:007940135.91
12/20/2020 02:007750 
12/20/2020 01:007610135.77
12/20/2020 00:007520135.73
12/19/2020 23:007430135.69
12/19/2020 22:007380135.67
12/19/2020 21:007340135.65
12/19/2020 20:007310135.64
12/19/2020 19:007290135.63

Start Stop